Regional Weather Roundup
Issued by NWS Cleveland, OH

Home | Current Version | Previous Version | Text Only | Print | Product List | Glossary Off
Versions: 1 2 3 4 5 6 7 8 9 10 11 12 13 14 15 16 17 18 19 20 21 22 23 24 25 26 27 28 29 30 31 32 33 34 35 36 37 38 39 40 41 42 43 44 45 46 47 48 49 50

000
ASUS41 KCLE 240702
RWRCLE
OHIO REGIONAL WEATHER ROUNDUP
NATIONAL WEATHER SERVICE CLEVELAND, OH
200 AM EST MON NOV 24 2014

NOTE: "FAIR" INDICATES FEW OR NO CLOUDS BELOW 12,000 FEET WITH NO
SIGNIFICANT WEATHER AND/OR OBSTRUCTIONS TO VISIBILITY.

OHZ001>008-015>018-024>027-034-035-043-044-240800-
   NORTHWEST OHIO

CITY           SKY/WX    TMP DP  RH WIND       PRES   REMARKS
DEFIANCE       RAIN      57  54  89 S18G26    29.09F
FINDLAY        LGT RAIN  57  54  89 S23       29.14F
TOLEDO EXPRESS LGT RAIN  55  53  93 S14G22    29.11F
TOLEDO EXEC    LGT RAIN  57  53  86 S28G36    29.13F
LIMA           LGT RAIN  58  32  37 S22G28    29.15F
$$

OHZ009>014-019>023-028>033-038-089-240800-
   NORTHEAST OHIO

CITY           SKY/WX    TMP DP  RH WIND       PRES   REMARKS
CLE-HOPKINS    MOCLDY    58  52  80 S24G32    29.26F
CLE-LAKEFRONT  CLOUDY    58  52  80 S21G30    29.23F
CUY CO. ARPT   NOT AVBL
LORAIN-ELYRIA  LGT RAIN  56  52  86 S21G29    29.22F
ASHTABULA      CLOUDY    55  51  86 S23G33    29.31F
AKRON-CANTON   CLOUDY    57  52  83 S20       29.31F
WOOSTER        LGT RAIN N/A N/A N/A S18G29    29.28F
MANSFIELD      LGT RAIN  57  54  89 S24G37    29.24F
YOUNGSTOWN     CLOUDY    56  52  86 SE20G32   29.33F
$$

OHZ042-051>053-060>062-070>072-077>081-240800-
  SOUTHWEST OHIO

CITY           SKY/WX    TMP DP  RH WIND       PRES   REMARKS
CINC-COVINGTON CLOUDY    59  53  80 SW16G25   29.32R
CINC-LUNKEN    CLOUDY    59  59 100 SW20G33   29.33R
HAMILTON       CLOUDY    59  56  89 SW16G26   29.30R
DAYTON         LGT RAIN  58  56  93 S21G36    29.25R
WRIGHT-PAT AFB LGT RAIN  59  55  88 S28G39    29.24S
DAYTON GENERAL CLOUDY    58  55  90 SW22G32   29.27R
WILMINGTON     LGT RAIN  57  54  89 SW22G32   29.29R
$$

OHZ036-037-039>041-045>050-054>059-063>069-073>076-082>088-240800-
  CENTRAL AND SOUTHEAST OHIO

CITY           SKY/WX    TMP DP  RH WIND       PRES   REMARKS
COLUMBUS       LGT RAIN  57  54  89 S20G26    29.28F FOG
OSU AIRPORT    LGT RAIN  56  54  93 S15G29    29.27F
BOLTON FIELD   NOT AVBL
RICKENBACK AFB NOT AVBL
NEWARK         LGT RAIN  58  54  86 S16G28    29.29F
MARION         CLOUDY    58  53  84 S26G37    29.21F
LANCASTER      LGT RAIN  58  54  86 S18G24    29.31F FOG
ZANESVILLE     LGT RAIN  56  53  90 S15G25    29.34F
NEW PHILLY     LGT RAIN  59  53  80 S14G23    29.34F
$$


USA.gov is the U.S. government's official web portal to all federal, state and local government web resources and services.